Weather History for Ephrata, WA

Change the Weather History Date:

Monday, July 15, 2013

  Actual Average Record
Temperature  
Mean Temperature 76 °F 74 °F  
Max Temperature 88 °F 89 °F 102 °F (1996)
Min Temperature 63 °F 61 °F 43 °F (1993)
Degree Days  
Heating Degree Days 0 0  
Month to date heating degree days 0 4  
Since 1 June heating degree days 58 64  
Since 1 July heating degree days 0 4  
Cooling Degree Days 11 10  
Month to date cooling degree days 183 122  
Year to date cooling degree days 352 269  
Since 1 June cooling degree days 295 232  
Growing Degree Days 26 (Base 50)    
Moisture  
Dew Point 34 °F    
Average Humidity 24    
Maximum Humidity 37    
Minimum Humidity 10    
Precipitation  
Precipitation 0.00 in 0.02 in 0.10 in (1982)
Month to date precipitation T 0.20  
Year to date precipitation 3.61 4.27  
Sea Level Pressure  
Sea Level Pressure 29.92 in    
Wind  
Wind Speed 17 mph (North)    
Max Wind Speed 29 mph    
Max Gust Speed 33 mph    
Visibility 10 miles    
Events      
T = Trace of Precipitation, MM = Missing Value Source: NWS Daily Summary

Daily Weather History Graph

Daily Weather History Graph

Search for Another Location

Airport:

Trip Planner

Search our weather history database for the weather conditions in past years. The results will help you decide how hot, cold, wet, or windy it might be!

Date:

Astronomy

Jul. 15, 2013 Rise Set
Actual Time 5:17 AM PDT 8:50 PM PDT
Civil Twilight 4:39 AM PDT 9:28 PM PDT
Nautical Twilight 3:47 AM PDT 10:19 PM PDT
Astronomical Twilight 2:38 AM PDT 11:27 PM PDT
Moon 1:16 PM PDT (7/15) No Moon Set
Length of Visible Light 16h 49m
Length of Day
15h 32m
Waxing Crescent, 46% of the Moon is Illuminated
Jul 15
Waxing Crescent
Jul 15
First Quarter
Jul 22
Full
Jul 29
Last Quarter
Aug 6
New

Hourly Weather History & Observations

Time (PDT) Temp. Dew Point Humidity Pressure Visibility Wind Dir Wind Speed Gust Speed Precip Events Conditions
12:53 AM 72.0 °F 32.0 °F 23% 29.87 in 10.0 mi NNW 8.1 mph - N/A   Clear
1:53 AM 71.1 °F 33.1 °F 25% 29.88 in 10.0 mi NW 18.4 mph - N/A   Clear
2:53 AM 69.1 °F 34.0 °F 27% 29.89 in 10.0 mi NW 16.1 mph - N/A   Clear
3:53 AM 66.9 °F 35.1 °F 31% 29.90 in 10.0 mi NNW 16.1 mph - N/A   Clear
4:53 AM 64.0 °F 37.0 °F 37% 29.93 in 10.0 mi NNW 18.4 mph - N/A   Clear
5:53 AM 64.0 °F 37.0 °F 37% 29.95 in 10.0 mi North 15.0 mph - N/A   Clear
6:53 AM 66.9 °F 37.0 °F 33% 29.97 in 10.0 mi North 16.1 mph 20.7 mph N/A   Clear
7:53 AM 69.1 °F 37.0 °F 31% 29.99 in 10.0 mi North 25.3 mph 31.1 mph N/A   Clear
8:53 AM 71.1 °F 37.0 °F 29% 29.99 in 10.0 mi North 23.0 mph 29.9 mph N/A   Clear
9:53 AM 73.0 °F 36.0 °F 26% 29.99 in 10.0 mi North 19.6 mph - N/A   Clear
10:53 AM 75.9 °F 34.0 °F 22% 29.98 in 10.0 mi North 16.1 mph 28.8 mph N/A   Clear
11:53 AM 79.0 °F 33.1 °F 19% 29.97 in 10.0 mi NNE 18.4 mph 26.5 mph N/A   Clear
12:53 PM 81.0 °F 30.9 °F 16% 29.96 in 10.0 mi North 19.6 mph 25.3 mph N/A   Clear
1:53 PM 82.9 °F 30.9 °F 15% 29.94 in 10.0 mi North 19.6 mph 27.6 mph N/A   Clear
2:53 PM 84.9 °F 28.9 °F 13% 29.92 in 10.0 mi NNE 15.0 mph 25.3 mph N/A   Clear
3:53 PM 86.0 °F 30.0 °F 13% 29.90 in 10.0 mi North 16.1 mph 24.2 mph N/A   Clear
4:53 PM 87.1 °F 26.1 °F 11% 29.89 in 10.0 mi North 16.1 mph 27.6 mph N/A   Clear
5:53 PM 86.0 °F 25.0 °F 11% 29.87 in 10.0 mi North 17.3 mph 24.2 mph N/A   Clear
6:53 PM 84.9 °F 26.1 °F 12% 29.87 in 10.0 mi North 18.4 mph - N/A   Clear
7:53 PM 82.9 °F 33.1 °F 17% 29.88 in 10.0 mi North 15.0 mph - N/A   Clear
8:53 PM 75.9 °F 36.0 °F 23% 29.89 in 10.0 mi North 9.2 mph - N/A   Clear
9:53 PM 73.9 °F 37.9 °F 27% 29.91 in 10.0 mi North 12.7 mph - N/A   Clear
10:53 PM 72.0 °F 39.9 °F 31% 29.93 in 10.0 mi North 12.7 mph - N/A   Clear
11:53 PM 70.0 °F 41.0 °F 35% 29.93 in 10.0 mi North 16.1 mph - N/A   Clear